This demonstration page uses our WeatherBlox Daily Observations layout. Learn more.

Left ArrowRight Arrow

Hourly Observations for September 27, 2022

Temp ( °F °C ) Dew Point ( °F °C ) Humidity (%) Winds ( mph kmh ) Pressure ( in mb ) Visibility ( mi km ) Precip ( " mm )
12:53 am 00:53 Clear 77 25 63 17.2 62 62 NE 3 6 30.01 1016 10 16 0.00 0.00
1:53 am 01:53 Clear 75 23.9 67 19.4 76 76 ESE 7 11 29.99 1016 10 16 0.00 0.00
2:53 am 02:53 Clear 76 24.4 67 19.4 74 74 VRB 3 6 29.98 1015 10 16 0.00 0.00
3:53 am 03:53 Clear 76 24.4 66 18.9 71 71 Calm 29.98 1015 10 16 0.00 0.00
4:53 am 04:53 Clear 74 23.3 64 17.8 71 71 Calm 29.98 1015 10 16 0.00 0.00
5:53 am 05:53 Clear 74 23.3 64 17.8 71 71 E 3 6 29.98 1015 10 16 0.00 0.00
6:53 am 06:53 Sunny 75 23.9 65 18.3 71 71 ESE 6 9 30.00 1016 10 16 0.00 0.00
7:53 am 07:53 Sunny 80 26.7 66 18.9 62 62 WSW 3 6 30.01 1016 10 16 0.00 0.00
8:53 am 08:53 Sunny 82 27.8 67 19.4 60 60 VRB 6 9 30.02 1017 10 16 0.00 0.00
9:53 am 09:53 Mostly Sunny 83 28.3 67 19.4 59 59 WSW 8 13 30.01 1016 10 16 0.00 0.00
10:53 am 10:53 Mostly Sunny 85 29.4 67 19.4 55 55 WSW 9 15 30.01 1016 10 16 0.00 0.00
11:53 am 11:53 Partly Cloudy 84 28.9 67 19.4 57 57 WSW 9 15 29.99 1016 10 16 0.00 0.00
12:53 pm 12:53 Partly Cloudy 85 29.4 68 20 57 57 WSW 9 15 29.98 1015 10 16 0.00 0.00
1:53 pm 13:53 Mostly Cloudy 85 29.4 68 20 57 57 SW 8 13 29.96 1015 10 16 0.00 0.00
2:53 pm 14:53 Mostly Cloudy 84 28.9 70 21.1 63 63 SSW 10 17 29.94 1014 10 16 0.00 0.00
3:53 pm 15:53 Cloudy 83 28.3 71 21.7 67 67 S 12 19 29.95 1014 10 16 0.00 0.00
4:53 pm 16:53 Mostly Cloudy 83 28.3 70 21.1 65 65 S 9 15 29.96 1014 10 16 0.00 0.00
5:53 pm 17:53 Mostly Cloudy 83 28.3 69 20.6 63 63 SW 8 13 29.95 1014 10 16 0.00 0.00
6:53 pm 18:53 Mostly Cloudy 82 27.8 69 20.6 65 65 SW 5 7 29.97 1015 10 16 0.00 0.00
7:53 pm 19:53 Mostly Cloudy 82 27.8 66 18.9 58 58 NNE 13 20 29.97 1015 10 16 0.00 0.00
8:53 pm 20:53 Clear 79 26.1 68 20 69 69 NNE 8 13 30.00 1016 10 16 0.00 0.00
9:53 pm 21:53 Clear 80 26.7 65 18.3 60 60 NE 10 17 30.01 1016 10 16 0.00 0.00
10:53 pm 22:53 Clear 79 26.1 62 16.7 56 56 W 5 7 30.00 1016 10 16 0.00 0.00
11:53 pm 23:53 Clear 77 25 68 20 74 74 SE 7 11 29.99 1016 10 16 0.00 0.00

Powered by AerisWeather